Regional Weather Roundup
Issued by NWS

Home | Current Version | Previous Version | Graphics & Text | Print | Product List | Glossary On
Versions: 1 2 3 4 5 6 7 8 9 10 11 12 13 14 15 16 17 18 19 20 21 22 23 24 25 26 27 28 29 30 31 32 33 34 35 36 37 38 39 40 41 42 43 44 45 46 47 48 49 50
000
ASUS43 KOAX 311702
RWRNE

WEATHER ROUNDUP FOR NEBRASKA
NATIONAL WEATHER SERVICE OMAHA NE
1100 AM CST SAT JAN 31 2015

NOTES: SATELLITE DATA IS BEING USED TO AUGMENT CLOUD COVER ABOVE
       12000 FEET.
       "FAIR" INDICATES FEW OR NO CLOUDS BELOW 12,000 FEET WITH NO
       SIGNIFICANT WEATHER AND/OR OBSTRUCTIONS TO VISIBILITY.

  * THESE STATIONS DO NOT REPORT WEATHER SUCH AS RAIN...SNOW OR FOG.

NEZ001>004-019>022-054>056-311800-
NEBRASKA PANHANDLE

CITY           SKY/WX    TMP DP  RH WIND       PRES   REMARKS
SCOTTSBLUFF    LGT SNOW  33  29  85 NE3       29.93F FOG
ALLIANCE       LGT SNOW  31  28  89 N8        29.92F FOG     WCI  23
CHADRON        CLOUDY    30  25  81 NE5       29.97F WCI  25
SIDNEY         LGT SNOW  33  31  92 N6        29.91F FOG     WCI  28
$$

NEZ057>060-069>072-079>082-311800-
SOUTHWEST NEBRASKA

CITY           SKY/WX    TMP DP  RH WIND       PRES   REMARKS
NORTH PLATTE   CLOUDY    34  31  88 SE7       29.96F WCI  28
IMPERIAL       FOG       33  32  96 E6        29.92S VSB 1/4 WCI  28
MCCOOK         FOG       35  33  92 SE6       29.95F VSB 3/4 WCI  30
$$

NEZ005>010-023>029-035>040-094-311800-
NORTH CENTRAL NEBRASKA

CITY           SKY/WX    TMP DP  RH WIND       PRES   REMARKS
VALENTINE      FOG       26  25  96 NE13      30.02S VSB 3/4 WCI  15
BROKEN BOW     CLOUDY    34  31  88 S9        29.98F WCI  27
ORD            CLOUDY    35  30  82 SE6       30.01S WCI  30
$$

NEZ041-046>049-061>064-073>077-083>087-311800-
SOUTH CENTRAL NEBRASKA

CITY           SKY/WX    TMP DP  RH WIND       PRES   REMARKS
GRAND ISLAND   LGT SNOW  33  31  92 S9        30.05F FOG     WCI  25
HASTINGS       LGT SNOW  33  31  92 S9        30.03F VSB 1   WCI  25
KEARNEY *      CLOUDY    34  30  86 S9        30.02R WCI  26
$$

NEZ011>018-030>034-042>045-311800-
NORTHEAST NEBRASKA

CITY           SKY/WX    TMP DP  RH WIND       PRES   REMARKS
NORFOLK        CLOUDY    36  33  89 S7        30.06F WCI  30
COLUMBUS *     CLOUDY    36  28  75 S15       30.10S WCI  26
TEKAMAH        CLOUDY    38  33  82 S12       30.13S WCI  30
$$

NEZ050>053-065>068-078-088>093-311800-
SOUTHEAST NEBRASKA

CITY           SKY/WX    TMP DP  RH WIND       PRES   REMARKS
LINCOLN        LGT SNOW  33  32  96 S10       30.14S VSB 3/4 WCI  25
OMAHA EPPLEY   LGT SNOW  35  33  92 S9        30.15S FOG     WCI  28
FALLS CITY     RAIN      36  34  92 SE5       30.19S FOG     WCI  32
$$

NEZ044-045-051>053-067-311800-
OMAHA AREA

CITY           SKY/WX    TMP DP  RH WIND       PRES   REMARKS
OMAHA EPPLEY   LGT SNOW  35  33  92 S9        30.15S FOG     WCI  28
OFFUTT AFB     FLURRIES  35  34  96 S8        30.15S WCI  28
$$



USA.gov is the U.S. government's official web portal to all federal, state and local government web resources and services.